Stations météo

réclame
Mon MeteoGroup
Tiree, Grande-Bretagne (3100): Température de l'air & dewpoint: 13.07.2018 18:00:00 - 19.07.2018 18:00:00 (BST)Tiree, Grande-Bretagne (3100): Température de l'air -20cm & Température de l'air -100cm: 13.07.2018 18:00:00 - 19.07.2018 18:00:00 (BST)Tiree, Grande-Bretagne (3100): Vitesse du vent: 13.07.2018 18:00:00 - 19.07.2018 18:00:00 (BST)Tiree, Grande-Bretagne (3100): Direction du vent: 13.07.2018 18:00:00 - 19.07.2018 18:00:00 (BST)Tiree, Grande-Bretagne (3100): reduced air pressure: 13.07.2018 18:00:00 - 19.07.2018 18:00:00 (BST)Tiree, Grande-Bretagne (3100): visibility: 13.07.2018 18:00:00 - 19.07.2018 18:00:00 (BST)Tiree, Grande-Bretagne (3100): Ensoleillement: 13.07.2018 18:00:00 - 19.07.2018 18:00:00 (BST)Tiree, Grande-Bretagne (3100): Quantités de précipitations: 13.07.2018 18:00:00 - 19.07.2018 18:00:00 (BST)
Date & Time tt [°C] td [°C] tt -20cm [°C] tt -100cm [°C] ff [km/h] ff [knt] dd ppp [hPa] vv [km] sd [min] rr [mm]
19.07.2018 18:00:00 14,5 11,0 - - 22 12 SSW 1016,5 10 0 0,0
19.07.2018 17:00:00 14,7 11,4 - - 21 11 SSW 1017,0 10 0 0,0
19.07.2018 16:00:00 15,6 10,5 - - 24 13 SSW 1017,7 30 0 0,0
19.07.2018 15:00:00 15,8 10,4 - - 21 11 SSW 1018,0 10 18 0,0
19.07.2018 14:00:00 16,5 10,9 - - 22 12 SSW 1018,2 10 42 0,0
19.07.2018 13:00:00 16,2 11,2 - - 22 12 SSW 1018,3 40 54 0,0
19.07.2018 12:00:00 16,6 10,8 - - 22 12 SSW 1018,3 35 36 0,0
19.07.2018 11:00:00 15,4 10,4 - - 18 10 SSW 1018,6 10 0 0,0
19.07.2018 10:00:00 15,1 10,7 17,0 14,4 15 8 SSW 1018,6 10 0 0,0
19.07.2018 09:00:00 14,4 10,7 - - 11 6 SW 1018,9 50 0 0,0
19.07.2018 08:00:00 13,7 11,6 - - 9 5 SSW 1018,9 50 6 0,0
19.07.2018 07:00:00 11,9 11,0 - - 9 5 SSW 1019,0 45 0 0,0
19.07.2018 06:00:00 12,4 11,8 - - 13 7 SSW 1019,0 14 0 0,2
19.07.2018 05:00:00 11,3 10,8 - - 9 5 SSW 1019,1 50 0 0,0
19.07.2018 04:00:00 11,3 11,1 - - 9 5 SSW 1019,1 45 0 0,0
19.07.2018 03:00:00 9,8 9,6 - - 11 6 SSW 1019,3 45 0 0,0
19.07.2018 02:00:00 9,6 9,3 - - 9 5 SSW 1019,4 26 0 0,0
19.07.2018 01:00:00 10,0 9,8 - - 5 3 SSW 1019,5 15 - 0,0
19.07.2018 00:00:00 10,0 9,6 - - 8 4 WSW 1019,6 1,6 0 0,0
18.07.2018 23:00:00 10,1 9,2 - - 9 5 SW 1019,5 40 0 0,0
18.07.2018 22:00:00 12,2 10,8 - - 5 3 SW 1019,4 10 6 0,0
18.07.2018 21:00:00 14,6 10,9 - - 9 5 WSW 1019,1 40 60 0,0
18.07.2018 20:00:00 15,7 11,0 - - 11 6 W 1019,0 35 36 0,0
18.07.2018 19:00:00 15,9 11,0 - - 9 5 WSW 1018,7 35 0 0,0
18.07.2018 18:00:00 16,1 11,2 - - 5 3 WSW 1018,6 50 24 0,0
18.07.2018 17:00:00 16,5 10,1 - - 8 4 WSW 1018,4 50 18 0,0
18.07.2018 16:00:00 15,8 10,8 - - 11 6 WSW 1018,5 45 12 0,0
18.07.2018 15:00:00 16,4 11,1 - - 11 6 WSW 1018,3 10 18 0,0
18.07.2018 14:00:00 16,0 11,2 - - 11 6 SSE 1017,9 10 12 0,0
18.07.2018 13:00:00 15,8 9,6 - - 9 5 S 1017,8 10 12 0,0
18.07.2018 12:00:00 15,0 10,3 - - 9 5 SSE 1017,4 27 0 0,0
18.07.2018 11:00:00 14,7 10,7 - - 11 6 SSE 1017,1 10 0 0,0
18.07.2018 10:00:00 14,1 10,0 16,7 14,4 8 4 SSE 1017,0 10 0 0,0
18.07.2018 09:00:00 14,1 11,0 - - 5 3 - 1016,8 10 0 0,0
18.07.2018 08:00:00 13,1 11,3 - - 2 1 NE 1016,4 50 0 0,0
18.07.2018 07:00:00 12,2 11,6 - - 5 3 NNW 1015,8 45 0 0,0
18.07.2018 06:00:00 11,8 11,1 - - 4 2 NW 1015,5 40 0 0,0
18.07.2018 05:00:00 11,7 11,1 - - 5 3 WNW 1015,1 45 0 0,0
18.07.2018 04:00:00 11,8 11,2 - - 4 2 W 1015,1 35 0 0,0
18.07.2018 03:00:00 11,7 11,1 - - 5 3 W 1015,0 26 0 0,0
18.07.2018 02:00:00 11,8 11,2 - - 5 3 W 1014,9 18 0 0,0
18.07.2018 01:00:00 12,0 11,1 - - 8 4 SW 1015,0 27 - 0,0
18.07.2018 00:00:00 11,7 11,1 - - 5 3 SSW 1015,0 27 0 0,0
17.07.2018 23:00:00 11,6 11,2 - - 8 4 WNW 1014,9 16 0 0,6
17.07.2018 22:00:00 11,8 10,9 - - 15 8 WSW 1014,7 2,8 0 2,2
17.07.2018 21:00:00 13,7 10,7 - - 13 7 SSW 1014,2 28 0 0,0
17.07.2018 20:00:00 14,4 10,4 - - 13 7 SSW 1014,0 40 12 0,0
17.07.2018 19:00:00 15,3 10,0 - - 16 9 S 1013,7 30 24 0,0
17.07.2018 18:00:00 15,2 9,8 - - 16 9 SSW 1013,8 10 6 0,0
17.07.2018 17:00:00 15,5 9,6 - - 16 9 SW 1013,6 10 6 0,0
17.07.2018 16:00:00 16,3 9,7 - - 21 11 WSW 1013,5 35 54 0,0
17.07.2018 15:00:00 15,1 11,0 - - 18 10 W 1013,6 30 24 0,0
17.07.2018 14:00:00 15,8 9,2 - - 21 11 SW 1013,3 10 18 0,0
17.07.2018 13:00:00 15,9 10,0 - - 21 11 WSW 1013,2 10 30 0,0
17.07.2018 12:00:00 14,9 10,9 - - 15 8 W 1013,0 26 36 0,0
17.07.2018 11:00:00 15,1 10,2 - - 13 7 SW 1012,7 10 12 0,0
17.07.2018 10:00:00 13,8 9,2 16,7 14,4 16 9 WNW 1012,6 10 0 0,0
17.07.2018 09:00:00 12,9 10,6 - - 22 12 W 1012,5 27 0 0,0
17.07.2018 08:00:00 13,6 11,4 - - 11 6 WSW 1012,3 24 6 0,0
17.07.2018 07:00:00 12,7 12,3 - - 8 4 S 1011,9 19 0 0,0
17.07.2018 06:00:00 11,6 11,2 - - 2 1 S 1011,8 18 0 0,0
17.07.2018 05:00:00 11,8 11,3 - - 8 4 W 1011,6 17 0 0,2
17.07.2018 04:00:00 12,2 11,4 - - 16 9 WSW 1011,8 4,5 0 0,2
17.07.2018 03:00:00 12,3 11,6 - - 9 5 SSW 1011,7 24 0 0,0
17.07.2018 02:00:00 12,5 11,8 - - 9 5 SSW 1011,8 24 0 0,0
17.07.2018 01:00:00 12,4 11,5 - - 11 6 S 1011,9 35 - 0,0
17.07.2018 00:00:00 12,7 11,7 - - 15 8 S 1011,8 29 0 0,0
16.07.2018 23:00:00 12,4 11,4 - - 22 12 SSW 1011,9 10 0 0,0
16.07.2018 22:00:00 12,8 11,6 - - 16 9 WSW 1011,8 19 0 0,0
16.07.2018 21:00:00 13,9 11,8 - - 13 7 SSW 1011,6 27 0 0,0
16.07.2018 20:00:00 14,4 11,6 - - 18 10 SW 1011,5 25 18 0,0
16.07.2018 19:00:00 14,6 11,1 - - 18 10 SSW 1011,5 30 54 0,0
16.07.2018 18:00:00 15,7 11,4 - - 22 12 SSW 1011,4 10 30 0,0
16.07.2018 17:00:00 15,7 11,5 - - 22 12 SW 1011,3 35 42 0,0
16.07.2018 16:00:00 16,3 11,1 - - 22 12 SW 1011,4 10 24 0,0
16.07.2018 15:00:00 15,1 12,2 - - 22 12 SSW 1011,7 29 42 0,0
16.07.2018 14:00:00 17,1 11,7 - - 24 13 SSW 1011,4 10 48 0,0
16.07.2018 13:00:00 15,8 10,2 - - 24 13 SW 1011,3 10 12 0,0
16.07.2018 12:00:00 15,0 13,0 - - 22 12 S 1011,3 28 18 0,0
16.07.2018 11:00:00 15,3 10,8 - - 22 12 SSW 1011,1 10 42 0,0
16.07.2018 10:00:00 15,1 11,5 16,7 14,4 18 10 SW 1010,9 10 24 0,0
16.07.2018 09:00:00 14,6 11,8 - - 15 8 SW 1010,8 10 60 0,0
16.07.2018 08:00:00 14,5 12,3 - - 15 8 SW 1010,7 24 54 0,0
16.07.2018 07:00:00 12,3 11,4 - - 11 6 SW 1010,6 16 0 0,0
16.07.2018 06:00:00 13,1 12,5 - - 11 6 SSW 1010,4 18 0 0,0
16.07.2018 05:00:00 12,4 12,1 - - 13 7 S 1010,3 20 0 0,0
16.07.2018 04:00:00 12,4 12,2 - - 15 8 S 1010,5 11 0 0,0
16.07.2018 03:00:00 12,4 12,1 - - 13 7 S 1010,4 10 0 0,0
16.07.2018 02:00:00 13,1 12,8 - - 13 7 S 1010,5 13 0 0,0
16.07.2018 01:00:00 13,0 12,6 - - 15 8 SSE 1010,4 10 - 0,2
16.07.2018 00:00:00 13,1 12,6 - - 13 7 SSE 1010,5 16 0 0,8
15.07.2018 23:00:00 12,9 12,2 - - 11 6 SSW 1010,5 3,8 0 0,6
15.07.2018 22:00:00 13,8 13,4 - - 11 6 S 1010,0 16 0 0,0
15.07.2018 21:00:00 13,9 13,4 - - 8 4 SSW 1009,8 22 0 0,4
15.07.2018 20:00:00 13,8 13,5 - - 16 9 WSW 1009,9 22 0 0,6
15.07.2018 19:00:00 15,0 14,7 - - 21 11 S 1009,5 2,9 0 0,2
15.07.2018 18:00:00 15,1 14,6 - - 24 13 S 1009,5 10 0 0,2
15.07.2018 17:00:00 15,8 15,5 - - 22 12 S 1009,7 10 0 0,0
15.07.2018 16:00:00 15,2 15,1 - - 18 10 S 1010,2 9 0 0,0
15.07.2018 15:00:00 15,3 15,3 - - 21 11 S 1010,4 10 0 0,0
15.07.2018 14:00:00 15,0 15,0 - - 18 10 S 1010,7 10 0 0,0
15.07.2018 13:00:00 15,1 15,1 - - 21 11 S 1010,8 9 0 0,0
15.07.2018 12:00:00 14,9 14,9 - - 18 10 S 1010,8 8 0 0,2
15.07.2018 11:00:00 15,0 15,0 - - 24 13 S 1010,8 7 0 0,8
15.07.2018 10:00:00 14,8 14,8 16,9 14,4 22 12 S 1010,7 5 0 0,8
15.07.2018 09:00:00 14,7 14,7 - - 21 11 S 1010,7 4,7 0 0,6
15.07.2018 08:00:00 14,8 14,8 - - 21 11 S 1010,7 6 0 0,0
15.07.2018 07:00:00 14,6 14,6 - - 21 11 S 1010,8 5 0 0,6
15.07.2018 06:00:00 14,6 14,6 - - 21 11 S 1010,7 5 0 2,2
15.07.2018 05:00:00 14,6 14,6 - - 18 10 S 1010,7 6 0 1,2
15.07.2018 04:00:00 14,6 14,6 - - 22 12 S 1011,1 5 0 3,6
15.07.2018 03:00:00 14,6 14,6 - - 22 12 S 1011,3 2,6 0 6,2
15.07.2018 02:00:00 14,7 14,7 - - 21 11 S 1011,5 5 0 0,4
15.07.2018 01:00:00 14,4 14,4 - - 18 10 S 1011,8 2,2 - 0,2
15.07.2018 00:00:00 14,4 14,3 - - 18 10 S 1012,0 1,7 0 0,2
14.07.2018 23:00:00 14,5 14,5 - - 21 11 S 1012,3 2,9 0 0,2
14.07.2018 22:00:00 14,8 14,6 - - 22 12 S 1012,4 2,0 0 0,4
14.07.2018 21:00:00 15,0 14,8 - - 22 12 S 1012,4 2,8 0 0,2
14.07.2018 20:00:00 15,2 14,9 - - 26 14 S 1012,6 3,3 0 0,0
14.07.2018 19:00:00 15,3 15,0 - - 26 14 S 1012,8 10 0 0,2
14.07.2018 18:00:00 15,3 14,9 - - 26 14 S 1013,1 6 0 0,2
14.07.2018 17:00:00 15,0 14,5 - - 22 12 S 1013,4 9 0 0,0
14.07.2018 16:00:00 15,5 14,5 - - 26 14 S 1013,8 15 0 0,0
14.07.2018 15:00:00 15,7 14,2 - - 29 16 S 1014,1 10 0 0,0
14.07.2018 14:00:00 15,1 13,5 - - 31 17 S 1014,4 10 0 0,0
14.07.2018 13:00:00 15,3 13,1 - - 31 17 S 1014,5 10 0 0,0
14.07.2018 12:00:00 15,5 13,3 - - 31 17 S 1014,8 10 0 0,0
14.07.2018 11:00:00 15,3 13,1 - - 29 16 S 1015,0 19 0 0,0
14.07.2018 10:00:00 15,0 12,9 17,0 14,4 28 15 S 1015,4 10 0 0,0
14.07.2018 09:00:00 15,5 13,4 - - 26 14 S 1015,6 10 30 0,0
14.07.2018 08:00:00 14,7 13,3 - - 26 14 S 1015,9 17 18 0,0
14.07.2018 07:00:00 14,1 13,2 - - 26 14 S 1016,1 15 0 0,0
14.07.2018 06:00:00 14,1 13,0 - - 26 14 S 1016,2 14 0 0,0
14.07.2018 05:00:00 13,9 12,9 - - 26 14 S 1016,8 23 0 0,0
14.07.2018 04:00:00 13,6 13,0 - - 22 12 S 1017,3 16 0 0,0
14.07.2018 03:00:00 13,6 13,2 - - 22 12 S 1017,9 18 0 0,0
14.07.2018 02:00:00 13,5 13,2 - - 21 11 S 1018,3 14 0 0,0
14.07.2018 01:00:00 13,5 13,2 - - 18 10 S 1018,8 15 - 0,0
14.07.2018 00:00:00 13,4 13,1 - - 15 8 S 1019,1 16 0 0,0
13.07.2018 23:00:00 13,7 13,2 - - 16 9 S 1019,4 16 0 0,0
13.07.2018 22:00:00 13,6 13,0 - - 13 7 S 1019,7 13 0 0,0
13.07.2018 21:00:00 14,6 13,6 - - 15 8 S 1019,8 24 36 0,0
13.07.2018 20:00:00 15,4 13,9 - - 15 8 S 1020,1 35 54 0,0
13.07.2018 19:00:00 16,8 14,0 - - 16 9 S 1020,3 30 60 0,0
13.07.2018 18:00:00 17,3 13,3 - - 18 10 SSW 1020,6 10 54 0,0

tt = Température de l'air
td = dewpoint
tt -20cm = Température de l'air -20cm
tt -100cm = Température de l'air -100cm
ff = Vitesse du vent
dd = Direction du vent
ppp = reduced air pressure
vv = visibility
sd = Ensoleillement
rr = Quantités de précipitations

stations d'obs. à proximité